Tracking 30995 objects as of 7-Jul-2025
HD Live streaming from Space Station
objects crossing your sky now

STARLINK-1349

Track STARLINK-1349 now!
10-day predictions
STARLINK-1349 is classified as:


NORAD ID: 45587
Int'l Code: 2020-025BJ
Perigee: 364.1 km
Apogee: 370.8 km
Inclination: 53.1 °
Period: 91.7 minutes
Semi major axis: 6738 km
RCS: Unknown
Launch date: April 22, 2020
Source: United States (US)
Launch site: AIR FORCE EASTERN TEST RANGE (AFETR)
Your satellite tracking list
SKYKRAFT-1B
Track 1 satellite(s)




NASA's NSSDC Master Catalog

Two Line Element Set (TLE):
1 45587U 20025BJ  25187.87972345  .00129890  00000-0  10683-2 0  9995
2 45587  53.0516  85.6959 0004944 170.7259 189.3849 15.69513465288066
Source of the keplerian elements: AFSPC